DW3929 Weather Reports


time (UTC)temp
C
wind
direction
speed
KPH
gust
KPH
rain 1hr
cm
rain 24hr
cm
rain mn
cm
humidity
%
barometer
mb
20210920054851 26 338 4.8 11.3 0.00 0.00 0.00 84 1011.2
20210920054339 26 333 8.0 12.9 0.00 0.00 0.00 84 1011.2
20210920053848 26 331 4.8 14.5 0.00 0.00 0.00 83 1011.2
20210920053355 26 333 6.4 14.5 0.00 0.00 0.00 83 1011.2
20210920052944 26 333 8.0 16.1 0.00 0.00 0.00 83 1011.2
20210920052453 26 331 8.0 19.3 0.00 0.00 0.00 83 1011.1
20210920051941 26 331 9.7 19.3 0.00 0.00 0.00 83 1011.1
20210920051449 26 328 4.8 12.9 0.00 0.00 0.00 83 1011.1
20210920050957 26 337 8.0 12.9 0.00 0.00 0.00 83 1011.2
20210920050443 27 335 8.0 19.3 0.00 0.00 0.00 83 1011.2
20210920045952 26 341 12.9 19.3 0.00 0.00 0.00 83 1011.3
20210920045441 27 317 8.0 11.3 0.00 0.00 0.00 83 1011.2
20210920045242 27 315 9.7 9.7 0.00 0.00 0.00 83 1011.3
20210920042914 27 334 6.4 14.5 0.00 0.00 0.00 80 1011.2
20210920042421 27 328 3.2 12.9 0.00 0.00 0.00 79 1011.1
20210920041913 27 326 6.4 12.9 0.00 0.00 0.00 79 1011.1
20210920041420 27 323 6.4 14.5 0.00 0.00 0.00 78 1011.1
20210920040908 27 313 11.3 14.5 0.00 0.00 0.00 77 1011.1
20210920040416 27 317 11.3 14.5 0.00 0.00 0.00 76 1011.0
20210920035922 27 329 11.3 12.9 0.00 0.00 0.00 76 1011.0
20210920035407 27 329 3.2 14.5 0.00 0.00 0.00 75 1011.0
20210920034915 27 322 11.3 14.5 0.00 0.00 0.00 74 1011.0
20210920034424 27 330 6.4 16.1 0.00 0.00 0.00 73 1011.0
20210920033912 27 338 11.3 16.1 0.00 0.00 0.00 74 1010.9
20210920033420 26 333 8.0 12.9 0.00 0.00 0.00 76 1010.9
20210920032909 25 323 0.0 0.0 0.00 0.00 0.00 79 1010.8
20210920032417 24 331 0.0 0.0 0.00 0.00 0.00 81 1010.7
20210920031925 23 341 0.0 0.0 0.00 0.00 0.00 83 1010.7
20210920031413 23 341 0.0 0.0 0.00 0.00 0.00 84 1010.5
20210920030922 23 341 0.0 0.0 0.00 0.00 0.00 84 1010.5
20210920030411 24 341 0.0 0.0 0.00 0.00 0.00 84 1010.4
20210920025729 24 341 0.0 0.0 0.00 0.00 0.00 83 1010.3
20210920024851 24 341 0.0 0.0 0.00 0.00 0.00 83 1010.3
20210920024338 24 341 0.0 0.0 0.00 0.00 0.00 83 1010.3
20210920023844 25 341 0.0 0.0 0.00 0.00 0.00 82 1010.2
20210920023352 25 341 0.0 0.0 0.00 0.00 0.00 81 1010.2
20210920022840 25 341 0.0 0.0 0.00 0.00 0.00 81 1010.2
20210920022349 25 341 0.0 0.0 0.00 0.00 0.00 80 1010.1
20210920021850 25 341 0.0 0.0 0.00 0.00 0.00 79 1010.1
20210920021339 25 341 0.0 0.0 0.00 0.00 0.00 79 1010.0
20210920020846 25 341 0.0 0.0 0.00 0.00 0.00 78 1009.9
20210920020335 25 341 0.0 0.0 0.00 0.00 0.00 77 1009.9
20210920015844 26 341 0.0 0.0 0.00 0.00 0.00 77 1009.7
20210920015351 26 341 0.0 0.0 0.00 0.00 0.00 76 1009.7
20210920014840 26 341 0.0 0.0 0.00 0.00 0.00 76 1009.6
20210920014349 26 341 0.0 0.0 0.00 0.00 0.00 74 1009.5
20210920013837 26 341 0.0 0.0 0.00 0.00 0.00 74 1009.4
20210920013345 27 341 0.0 0.0 0.00 0.00 0.00 72 1009.3
20210920012850 27 341 0.0 0.0 0.00 0.00 0.00 71 1009.3
20210920012356 27 341 0.0 0.0 0.00 0.00 0.00 71 1009.3
20210920011856 27 341 0.0 0.0 0.00 0.00 0.00 70 1009.3
20210920011342 28 341 0.0 0.0 0.00 0.00 0.00 69 1009.2
20210920010851 28 341 0.0 0.0 0.00 0.00 0.00 67 1009.2
20210920010340 28 341 0.0 0.0 0.00 0.00 0.00 67 1009.2
20210920005849 28 341 0.0 0.0 0.00 0.00 0.00 65 1009.1
20210920005338 29 341 0.0 0.0 0.00 0.00 0.00 64 1009.2
20210920004846 29 341 0.0 0.0 0.00 0.00 0.00 64 1009.2
20210920004354 30 341 0.0 0.0 0.00 0.00 0.00 62 1009.2
20210920003847 30 341 0.0 0.0 0.00 0.00 0.00 61 1009.2
20210920003353 30 341 0.0 0.0 0.00 0.00 0.00 61 1009.1
20210920002838 31 341 0.0 0.0 0.00 0.00 0.00 60 1009.1
20210920002345 31 341 0.0 0.0 0.00 0.00 0.00 58 1009.1
20210920001852 31 341 0.0 0.0 0.00 0.00 0.00 58 1009.1
20210920001339 32 341 0.0 0.0 0.00 0.00 0.00 56 1009.0
20210920000847 32 341 0.0 0.0 0.00 0.00 0.00 54 1009.1
20210920000335 32 341 0.0 0.0 0.00 0.00 0.00 53 1009.0
20210919235843 33 341 0.0 0.0 0.00 0.00 0.00 51 1009.0
20210919235336 33 342 0.0 0.0 0.00 0.00 0.00 51 1009.1
20210919234844 33 341 0.0 0.0 0.00 0.00 0.00 50 1009.1
20210919234354 33 340 0.0 11.3 0.00 0.00 0.00 47 1009.0
20210919233842 33 343 0.0 12.9 0.00 0.00 0.00 47 1009.0
20210919233350 33 355 0.0 14.5 0.00 0.00 0.00 48 1009.1
20210919232854 33 329 8.0 14.5 0.00 0.00 0.00 46 1009.0
20210919232341 34 355 1.6 12.9 0.00 0.00 0.00 49 1009.1
20210919231849 34 342 0.0 11.3 0.00 0.00 0.00 47 1009.0
20210919231337 35 9 0.0 11.3 0.00 0.00 0.00 45 1009.0
20210919230844 35 9 1.6 11.3 0.00 0.00 0.00 47 1009.0
20210919230355 35 355 4.8 16.1 0.00 0.00 0.00 44 1009.0
20210919225841 36 333 8.0 16.1 0.00 0.00 0.00 43 1009.0
20210919225349 36 13 1.6 11.3 0.00 0.00 0.00 43 1009.0
20210919224837 36 11 11.3 14.5 0.00 0.00 0.00 41 1009.1
20210919224346 37 5 6.4 14.5 0.00 0.00 0.00 43 1009.0
20210919223855 37 336 0.0 11.3 0.00 0.00 0.00 42 1009.0
20210919223343 37 346 0.0 14.5 0.00 0.00 0.00 39 1009.0
20210919222851 37 331 9.7 14.5 0.00 0.00 0.00 40 1009.0
20210919222340 37 333 0.0 11.3 0.00 0.00 0.00 41 1009.0
20210919221852 37 238 0.0 0.0 0.00 0.00 0.00 41 1009.0
20210919221339 37 238 0.0 0.0 0.00 0.00 0.00 49 1009.0
20210919220847 36 238 0.0 0.0 0.00 0.00 0.00 49 1009.0
20210919220335 36 238 0.0 0.0 0.00 0.00 0.00 42 1009.0
20210919215843 36 238 0.0 0.0 0.00 0.00 0.00 46 1009.0
20210919215352 36 238 0.0 0.0 0.00 0.00 0.00 40 1009.0
20210919214840 36 237 0.0 0.0 0.00 0.00 0.00 44 1009.1
20210919214348 36 237 0.0 0.0 0.00 0.00 0.00 43 1009.1
20210919213837 37 244 0.0 0.0 0.00 0.00 0.00 42 1009.1
20210919213348 37 244 0.0 0.0 0.00 0.00 0.00 37 1009.2
20210919212850 37 244 0.0 0.0 0.00 0.00 0.00 35 1009.3
20210919212353 37 250 0.0 11.3 0.00 0.00 0.00 40 1009.3
20210919211838 37 253 6.4 11.3 0.00 0.00 0.00 41 1009.3
20210919211346 37 310 3.2 8.0 0.00 0.00 0.00 36 1009.2
20210919210848 37 287 0.0 6.4 0.00 0.00 0.00 38 1009.3
20210919210353 37 285 0.0 4.8 0.00 0.00 0.00 38 1009.3
20210919205839 37 285 1.6 4.8 0.00 0.00 0.00 39 1009.4
20210919205347 37 254 0.0 0.0 0.00 0.00 0.00 40 1009.4
20210919204854 36 253 0.0 0.0 0.00 0.00 0.00 40 1009.5
20210919204341 36 192 0.0 0.0 0.00 0.00 0.00 47 1009.6
20210919203854 36 191 0.0 0.0 0.00 0.00 0.00 40 1009.7
20210919203340 35 189 0.0 0.0 0.00 0.00 0.00 48 1009.7
20210919202847 35 181 0.0 0.0 0.00 0.00 0.00 45 1009.9
20210919202335 34 181 0.0 0.0 0.00 0.00 0.00 54 1010.0
20210919201854 34 180 0.0 0.0 0.00 0.00 0.00 52 1010.1
20210919201339 35 177 0.0 0.0 0.00 0.00 0.00 45 1010.2
20210919200848 35 177 0.0 6.4 0.00 0.00 0.00 51 1010.3
20210919200337 36 174 3.2 6.4 0.00 0.00 0.00 45 1010.4
20210919195844 36 103 0.0 0.0 0.00 0.00 0.00 47 1010.4
20210919195337 37 102 0.0 6.4 0.00 0.00 0.00 43 1010.5
20210919194844 36 103 0.0 6.4 0.00 0.00 0.00 40 1010.6
20210919194352 36 118 0.0 4.8 0.00 0.00 0.00 45 1010.6
20210919193841 36 263 0.0 0.0 0.00 0.00 0.00 45 1010.7
20210919193350 36 264 0.0 4.8 0.00 0.00 0.00 41 1010.8
20210919192856 36 264 1.6 14.5 0.00 0.00 0.00 50 1010.9
20210919192342 35 258 0.0 14.5 0.00 0.00 0.00 44 1011.1
20210919191847 35 244 0.0 9.7 0.00 0.00 0.00 48 1011.2
20210919191350 36 242 0.0 9.7 0.00 0.00 0.00 48 1011.3
20210919190837 36 40 0.0 0.0 0.00 0.00 0.00 50 1011.5
20210919190349 36 40 0.0 0.0 0.00 0.00 0.00 46 1011.6
20210919185838 36 40 0.0 0.0 0.00 0.00 0.00 45 1011.7
20210919185346 36 39 0.0 3.2 0.00 0.00 0.00 45 1011.8
20210919184834 36 40 0.0 4.8 0.00 0.00 0.00 43 1011.9
20210919184343 36 40 0.0 4.8 0.00 0.00 0.00 47 1012.0
20210919183852 36 57 0.0 8.0 0.00 0.00 0.00 46 1012.1
20210919183339 35 17 4.8 8.0 0.00 0.00 0.00 48 1012.2
20210919182851 35 37 0.0 4.8 0.00 0.00 0.00 48 1012.3
20210919182335 35 82 0.0 0.0 0.00 0.00 0.00 54 1012.5
20210919181843 34 92 0.0 0.0 0.00 0.00 0.00 56 1012.5
20210919181336 34 92 0.0 0.0 0.00 0.00 0.00 51 1012.7
20210919180845 33 110 0.0 0.0 0.00 0.00 0.00 53 1012.7
20210919180352 33 111 0.0 0.0 0.00 0.00 0.00 55 1012.8
20210919175840 32 111 0.0 0.0 0.00 0.00 0.00 63 1012.8
20210919175348 32 110 0.0 0.0 0.00 0.00 0.00 64 1012.9
20210919174835 33 110 0.0 0.0 0.00 0.00 0.00 61 1013.0
20210919174342 33 110 0.0 0.0 0.00 0.00 0.00 59 1013.1
20210919173851 33 110 0.0 0.0 0.00 0.00 0.00 54 1013.2
20210919173339 33 110 0.0 0.0 0.00 0.00 0.00 53 1013.3
20210919172850 34 115 0.0 0.0 0.00 0.00 0.00 53 1013.4
20210919172338 34 115 0.0 0.0 0.00 0.00 0.00 51 1013.5
20210919171845 33 115 0.0 0.0 0.00 0.00 0.00 53 1013.6
20210919171354 33 115 0.0 0.0 0.00 0.00 0.00 52 1013.7
20210919170842 33 115 0.0 0.0 0.00 0.00 0.00 52 1013.7
20210919170350 33 115 0.0 0.0 0.00 0.00 0.00 53 1013.8
20210919165838 33 115 0.0 0.0 0.00 0.00 0.00 52 1013.8
20210919165347 33 122 0.0 0.0 0.00 0.00 0.00 54 1013.9
20210919164835 33 129 0.0 0.0 0.00 0.00 0.00 53 1013.9
20210919164348 33 127 0.0 0.0 0.00 0.00 0.00 53 1014.0
20210919163836 33 38 0.0 0.0 0.00 0.00 0.00 56 1014.0
20210919163343 33 38 0.0 0.0 0.00 0.00 0.00 55 1014.0
20210919162952 33 38 0.0 0.0 0.00 0.00 0.00 55 1014.1
20210919162441 33 40 0.0 0.0 0.00 0.00 0.00 56 1014.2
20210919161950 33 40 0.0 0.0 0.00 0.00 0.00 57 1014.3
20210919161458 32 68 0.0 0.0 0.00 0.00 0.00 59 1014.3
20210919160946 32 68 0.0 0.0 0.00 0.00 0.00 59 1014.4
20210919160455 32 62 0.0 0.0 0.00 0.00 0.00 60 1014.4
20210919155943 32 63 0.0 6.4 0.00 0.00 0.00 61 1014.5
20210919155450 32 32 0.0 6.4 0.00 0.00 0.00 61 1014.5
20210919154940 31 111 0.0 0.0 0.00 0.00 0.00 63 1014.5
20210919154443 31 123 0.0 0.0 0.00 0.00 0.00 64 1014.4
20210919152922 30 125 0.0 0.0 0.00 0.00 0.00 69 1014.5
20210919152410 30 140 0.0 0.0 0.00 0.00 0.00 68 1014.6
20210919151919 30 149 0.0 0.0 0.00 0.00 0.00 69 1014.6
20210919151407 29 149 0.0 0.0 0.00 0.00 0.00 73 1014.6
20210919150915 28 167 0.0 0.0 0.00 0.00 0.00 79 1014.5
20210919150422 28 167 0.0 0.0 0.00 0.00 0.00 76 1014.6
20210919145910 28 229 0.0 0.0 0.00 0.00 0.00 82 1014.5
20210919145423 27 231 0.0 0.0 0.00 0.00 0.00 81 1014.5
20210919144911 27 231 0.0 0.0 0.00 0.00 0.00 82 1014.4
20210919144418 26 236 0.0 0.0 0.00 0.00 0.00 88 1014.4
20210919143927 25 236 0.0 0.0 0.00 0.00 0.00 89 1014.4
20210919143415 25 236 0.0 0.0 0.00 0.00 0.00 89 1014.3
20210919142924 24 236 0.0 0.0 0.00 0.00 0.00 92 1014.2
20210919142413 23 236 0.0 0.0 0.00 0.00 0.00 94 1014.3
20210919141922 23 236 0.0 0.0 0.00 0.00 0.00 95 1014.3
20210919141410 23 236 0.0 0.0 0.00 0.00 0.00 97 1014.2
20210919140923 22 236 0.0 0.0 0.00 0.00 0.00 97 1014.3
20210919140412 22 236 0.0 0.0 0.00 0.00 0.00 97 1014.3
20210919135920 21 236 0.0 0.0 0.00 0.00 0.00 97 1014.3
20210919135407 21 236 0.0 0.0 0.00 0.00 0.00 97 1014.3
20210919134916 21 236 0.0 0.0 0.00 0.00 0.00 97 1014.3
20210919134423 20 236 0.0 0.0 0.00 0.00 0.00 97 1014.2
20210919133910 20 236 0.0 0.0 0.00 0.00 0.00 97 1014.2
20210919133419 20 236 0.0 0.0 0.00 0.00 0.00 96 1014.3
20210919132907 20 236 0.0 0.0 0.00 0.00 0.00 96 1014.2
20210919132420 20 236 0.0 0.0 0.00 0.00 0.00 96 1014.3
20210919131925 19 236 0.0 0.0 0.00 0.00 0.00 96 1014.3
20210919131414 19 236 0.0 0.0 0.00 0.00 0.00 96 1014.3
20210919130921 19 236 0.0 0.0 0.00 0.00 0.00 95 1014.3
20210919130410 18 236 0.0 0.0 0.00 0.00 0.00 95 1014.2
20210919125918 18 236 0.0 0.0 0.00 0.00 0.00 95 1014.1
20210919125426 18 236 0.0 0.0 0.00 0.00 0.00 95 1014.0
20210919124935 18 236 0.0 0.0 0.00 0.00 0.00 95 1014.0
20210919124353 18 236 0.0 0.0 0.00 0.00 0.00 95 1013.8
20210919123842 18 236 0.0 0.0 0.00 0.00 0.00 95 1013.8
20210919123334 18 236 0.0 0.0 0.00 0.00 0.00 94 1013.9
20210919122843 18 236 0.0 0.0 0.00 0.00 0.00 94 1013.7
20210919122351 18 236 0.0 0.0 0.00 0.00 0.00 94 1013.7
20210919121839 18 236 0.0 0.0 0.00 0.00 0.00 94 1013.6
20210919121348 18 236 0.0 0.0 0.00 0.00 0.00 94 1013.5
20210919120836 18 236 0.0 0.0 0.00 0.00 0.00 94 1013.5
20210919120344 18 236 0.0 0.0 0.00 0.00 0.00 94 1013.5
20210919115852 18 236 0.0 0.0 0.00 0.00 0.00 94 1013.6
20210919115341 18 236 0.0 0.0 0.00 0.00 0.00 94 1013.6
20210919114853 18 236 0.0 0.0 0.00 0.00 0.00 94 1013.6
20210919114341 18 236 0.0 0.0 0.00 0.00 0.00 94 1013.5
20210919113849 18 236 0.0 0.0 0.00 0.00 0.00 94 1013.5
20210919113336 18 236 0.0 0.0 0.00 0.00 0.00 94 1013.5
20210919112845 18 236 0.0 0.0 0.00 0.00 0.00 94 1013.4
20210919112353 19 236 0.0 0.0 0.00 0.00 0.00 94 1013.4
20210919111841 19 236 0.0 0.0 0.00 0.00 0.00 94 1013.3
20210919111350 19 236 0.0 0.0 0.00 0.00 0.00 94 1013.4
20210919110837 19 236 0.0 0.0 0.00 0.00 0.00 94 1013.4
20210919110349 19 236 0.0 0.0 0.00 0.00 0.00 94 1013.4
20210919105838 19 236 0.0 0.0 0.00 0.00 0.00 94 1013.3
20210919105346 19 236 0.0 0.0 0.00 0.00 0.00 94 1013.3
20210919104834 19 236 0.0 0.0 0.00 0.00 0.00 94 1013.3
20210919104342 19 236 0.0 0.0 0.00 0.00 0.00 94 1013.4
20210919103850 19 236 0.0 0.0 0.00 0.00 0.00 94 1013.4
20210919103338 19 236 0.0 0.0 0.00 0.00 0.00 94 1013.4
20210919102847 19 236 0.0 0.0 0.00 0.00 0.00 94 1013.4
20210919102354 19 236 0.0 0.0 0.00 0.00 0.00 94 1013.5
20210919101845 19 236 0.0 0.0 0.00 0.00 0.00 94 1013.5
20210919101354 19 236 0.0 0.0 0.00 0.00 0.00 94 1013.4
20210919100842 19 236 0.0 0.0 0.00 0.00 0.00 94 1013.4
20210919100352 19 236 0.0 0.0 0.00 0.00 0.00 94 1013.5
20210919095840 19 236 0.0 0.0 0.00 0.00 0.00 94 1013.5
20210919095348 20 236 0.0 0.0 0.00 0.00 0.00 94 1013.5
20210919094836 20 236 0.0 0.0 0.00 0.00 0.00 94 1013.5
20210919094345 20 236 0.0 0.0 0.00 0.00 0.00 93 1013.6
20210919093853 20 236 0.0 0.0 0.00 0.00 0.00 93 1013.6
20210919093346 20 236 0.0 0.0 0.00 0.00 0.00 93 1013.6
20210919092853 20 236 0.0 0.0 0.00 0.00 0.00 93 1013.5
20210919092341 20 236 0.0 0.0 0.00 0.00 0.00 93 1013.6
20210919091849 20 236 0.0 0.0 0.00 0.00 0.00 93 1013.6
20210919091338 20 236 0.0 0.0 0.00 0.00 0.00 93 1013.7
20210919090847 20 236 0.0 0.0 0.00 0.00 0.00 93 1013.8
20210919090335 20 236 0.0 0.0 0.00 0.00 0.00 93 1013.8
20210919085843 20 236 0.0 0.0 0.00 0.00 0.00 93 1013.8
20210919085351 20 236 0.0 0.0 0.00 0.00 0.00 93 1013.8
20210919084844 20 236 0.0 0.0 0.00 0.00 0.00 93 1013.9
20210919084352 20 236 0.0 0.0 0.00 0.00 0.00 93 1013.9
20210919083840 20 236 0.0 0.0 0.00 0.00 0.00 93 1014.0
20210919083349 20 236 0.0 0.0 0.00 0.00 0.00 93 1014.0
20210919082836 20 236 0.0 0.0 0.00 0.00 0.00 93 1013.9
20210919082344 20 236 0.0 0.0 0.00 0.00 0.00 93 1014.0
20210919081853 20 236 0.0 0.0 0.00 0.00 0.00 93 1014.0
20210919081341 20 236 0.0 0.0 0.00 0.00 0.00 93 1014.0
20210919080849 20 236 0.0 0.0 0.00 0.00 0.00 93 1014.1
20210919080341 20 236 0.0 0.0 0.00 0.00 0.00 93 1014.0
20210919075849 20 236 0.0 0.0 0.00 0.00 0.00 93 1014.1
20210919075338 20 236 0.0 0.0 0.00 0.00 0.00 93 1014.1
20210919074846 20 236 0.0 0.0 0.00 0.00 0.00 93 1014.1
20210919074355 20 236 0.0 0.0 0.00 0.00 0.00 93 1014.2
20210919073842 20 236 0.0 0.0 0.00 0.00 0.00 93 1014.3
20210919073351 20 236 0.0 0.0 0.00 0.00 0.00 93 1014.4
20210919072839 20 236 0.0 0.0 0.00 0.00 0.00 93 1014.4
20210919072348 20 236 0.0 0.0 0.00 0.00 0.00 93 1014.4
20210919071840 20 236 0.0 0.0 0.00 0.00 0.00 93 1014.4
20210919071348 20 236 0.0 0.0 0.00 0.00 0.00 93 1014.5
20210919070836 20 236 0.0 0.0 0.00 0.00 0.00 93 1014.5
20210919070343 21 236 0.0 0.0 0.00 0.00 0.00 93 1014.5
20210919065852 21 236 0.0 0.0 0.00 0.00 0.00 93 1014.6
20210919065341 21 236 0.0 0.0 0.00 0.00 0.00 93 1014.4
20210919064850 21 236 0.0 0.0 0.00 0.00 0.00 92 1014.5
20210919064339 21 236 0.0 0.0 0.00 0.00 0.00 92 1014.5
20210919063847 21 236 0.0 0.0 0.00 0.00 0.00 92 1014.5
20210919063339 21 236 0.0 0.0 0.00 0.00 0.00 92 1014.5
20210919062848 21 236 0.0 0.0 0.00 0.00 0.00 92 1014.5
20210919062336 21 236 0.0 0.0 0.00 0.00 0.00 92 1014.4
20210919061845 21 236 0.0 0.0 0.00 0.00 0.00 92 1014.4
20210919061353 21 236 0.0 0.0 0.00 0.00 0.00 92 1014.3
20210919060841 21 236 0.0 0.0 0.00 0.00 0.00 92 1014.3
20210919060350 21 236 0.0 0.0 0.00 0.00 0.00 92 1014.3
20210919055838 21 236 0.0 0.0 0.00 0.00 0.00 92 1014.2
20210919055347 21 236 0.0 0.0 0.00 0.00 0.00 91 1014.2